Torna al catalogo

STARLINK-34856

AttivoComunicazioniVLEO
NORAD 65687·PAYLOAD·🇺🇸 United States

Lanciato Sep 21, 2025 da Cape Canaveral Space Force Station

Loading…

Prossimi Passaggi (prossime 24 ore)

TLE

AggiornatoSource: CelesTrak SupGP

Epoca: Sep 14, 2026, 22:59 UTC

1 65687C 25212M   26257.95812500 -.00038267  00000+0 -12303-2 0  2571
2 65687  53.1580 185.1150 0001334  90.4003 193.8281 15.31726590    16

Traccia STARLINK-34856 in tempo reale con AllMySat

Download on the App Store